Weather History for Nouasseur, Morocco

Change the Weather History Date:

Friday, January 25, 2013

  Actual Average Record
Temperature  
Mean Temperature 48 °F -  
Max Temperature 60 °F 64 °F 75 °F (2007)
Min Temperature 36 °F 43 °F 36 °F (2013)
Degree Days  
Heating Degree Days 17    
Moisture  
Dew Point 56 °F    
Average Humidity 95    
Maximum Humidity 100    
Minimum Humidity 90    
Precipitation  
Precipitation 0.12 in - - ()
Sea Level Pressure  
Sea Level Pressure 30.27 in    
Wind  
Wind Speed 9 mph ()    
Max Wind Speed 13 mph    
Max Gust Speed -    
Visibility 5.1 miles    
Events Rain    
Averages and records for this station are not official NWS values.
T = Trace of Precipitation, MM = Missing Value Source: Averaged Metar Reports

Daily Weather History Graph

Daily Weather History Graph

Search for Another Location

Airport:

Trip Planner

Search our weather history database for the weather conditions in past years. The results will help you decide how hot, cold, wet, or windy it might be!

Date:

Astronomy

Jan. 25, 2013 Rise Set
Actual Time 7:30 AM WET 5:55 PM WET
Civil Twilight 7:04 AM WET 6:21 PM WET
Nautical Twilight 6:34 AM WET 6:51 PM WET
Astronomical Twilight 6:04 AM WET 7:21 PM WET
Moon 4:40 PM WET (1/25) 6:00 AM WET (1/25)
Length of Visible Light 11h 17m
Length of Day
10h 24m
Waxing Gibbous, 97% of the Moon is Illuminated
Jan 25
Waxing Gibbous
Jan 27
Full
Feb 3
Last Quarter
Feb 10
New
Feb 17
First Quarter

Hourly Weather History & Observations

Time (WET) Temp. Dew Point Humidity Pressure Visibility Wind Dir Wind Speed Gust Speed Precip Events Conditions
12:00 AM 55 °F 53 °F 92% 30.31 in 4 mi SW 8.1 mph - -   Mist
12:00 AM 55.4 °F 53.6 °F 94% 30.30 in 3.7 mi SW 8.1 mph - N/A   Scattered Clouds
12:30 AM 55.4 °F 53.6 °F 94% 30.30 in 4.3 mi SW 11.5 mph - N/A   Scattered Clouds
1:00 AM 55.4 °F 53.6 °F 94% 30.27 in 4.3 mi SW 11.5 mph - N/A   Scattered Clouds
1:30 AM 55.4 °F 53.6 °F 94% 30.27 in 4.3 mi SW 11.5 mph - N/A   Scattered Clouds
2:00 AM 55.4 °F 53.6 °F 94% 30.27 in 6.2 mi SSW 10.4 mph - N/A   Scattered Clouds
2:30 AM 55.4 °F 53.6 °F 94% 30.27 in 6.2 mi SSW 10.4 mph - N/A   Light Drizzle
3:00 AM 55 °F 53 °F 92% 30.28 in 4 mi SW 11.5 mph - - Rain Light Drizzle
3:00 AM 55.4 °F 53.6 °F 94% 30.27 in 6.2 mi SW 11.5 mph - N/A   Scattered Clouds
3:30 AM 55.4 °F 53.6 °F 94% 30.27 in 6.2 mi SW 11.5 mph - N/A Rain Light Rain
4:00 AM 55.4 °F 53.6 °F 94% 30.27 in 6.2 mi SSW 10.4 mph - N/A Rain Light Rain
4:30 AM 55.4 °F 53.6 °F 94% 30.27 in 5.0 mi SW 10.4 mph - N/A Rain Light Rain
4:58 AM 55.4 °F 53.6 °F 94% 30.27 in 1.9 mi SSW 11.5 mph - N/A Rain Light Rain
5:00 AM 55.4 °F 53.6 °F 94% 30.27 in - SSW 11.5 mph - N/A Rain Light Rain
5:30 AM 55.4 °F 53.6 °F 94% 30.27 in 3.7 mi SW 11.5 mph - N/A Rain Heavy Rain
6:00 AM 55 °F 54 °F 95% 30.27 in 3 mi SW 11.5 mph - - Rain Light Rain
6:00 AM 55.4 °F 53.6 °F 94% 30.24 in 4.3 mi SW 11.5 mph - N/A   Scattered Clouds
6:30 AM 55.4 °F 53.6 °F 94% 30.24 in 6.2 mi SSW 11.5 mph - N/A   Scattered Clouds
7:00 AM 55.4 °F 53.6 °F 94% 30.27 in 4.3 mi SW 10.4 mph - N/A   Scattered Clouds
7:30 AM 55.4 °F 53.6 °F 94% 30.27 in 3.7 mi SSW 11.5 mph - N/A Rain Light Rain
8:00 AM 55.4 °F 53.6 °F 94% 30.27 in 3.1 mi SSW 11.5 mph - N/A Rain Heavy Rain
8:30 AM 55.4 °F 53.6 °F 94% 30.27 in 2.8 mi SSW 11.5 mph - N/A   Light Drizzle
9:00 AM 56 °F 55 °F 95% 30.29 in 3 mi SW 11.5 mph - - Rain Light Drizzle
9:00 AM 55.4 °F 55.4 °F 100% 30.27 in - SW 11.5 mph - N/A   Light Drizzle
9:30 AM 55.4 °F 55.4 °F 100% 30.27 in 6.2 mi SW 12.7 mph - N/A   Mostly Cloudy
10:00 AM 57.2 °F 55.4 °F 94% 30.30 in 6.2 mi SW 10.4 mph - N/A   Mostly Cloudy
10:30 AM 57.2 °F 57.2 °F 100% 30.30 in 6.2 mi SW 12.7 mph - N/A   Mostly Cloudy
11:00 AM 57.2 °F 57.2 °F 100% 30.30 in 4.3 mi SW 12.7 mph - N/A Rain Rain
11:30 AM 57.2 °F 57.2 °F 100% 30.30 in 3.1 mi SW 12.7 mph - N/A Rain Light Rain
12:00 PM 58 °F 57 °F 95% 30.30 in 6 mi WSW 10.4 mph - - Rain Light Rain
12:00 PM 57.2 °F 57.2 °F 100% 30.30 in 6.2 mi WSW 10.4 mph - N/A Rain Light Rain
12:30 PM 59.0 °F 57.2 °F 94% 30.27 in 6.2 mi West 8.1 mph - N/A   Mostly Cloudy
1:00 PM 59.0 °F 59.0 °F 100% 30.27 in 6.2 mi WNW 11.5 mph - N/A   Mostly Cloudy
1:30 PM 59.0 °F 59.0 °F 100% 30.27 in 6.2 mi WNW 6.9 mph - N/A   Mostly Cloudy
2:00 PM 59.0 °F 59.0 °F 100% 30.24 in 6.2 mi WSW 3.5 mph - N/A   Mostly Cloudy
2:30 PM 60.8 °F 59.0 °F 94% 30.24 in 6.2 mi WSW 5.8 mph - N/A   Mostly Cloudy
3:00 PM 60 °F 58 °F 92% 30.25 in 6 mi West 9.2 mph - - Rain Light Rain
3:00 PM 60.8 °F 59.0 °F 94% 30.24 in 6.2 mi West 9.2 mph - N/A Rain Light Rain
3:30 PM 60.8 °F 59.0 °F 94% 30.24 in 6.2 mi West 10.4 mph - N/A Rain Rain
3:47 PM 59.0 °F 57.2 °F 94% 30.24 in 5.0 mi WNW 11.5 mph - N/A   Mostly Cloudy
4:00 PM 59.0 °F 57.2 °F 94% 30.24 in 6.2 mi West 10.4 mph - N/A   Mostly Cloudy
4:30 PM 59.0 °F 57.2 °F 94% 30.27 in 3.7 mi West 8.1 mph - N/A Rain Heavy Rain
5:00 PM 59.0 °F 57.2 °F 94% 30.27 in 6.2 mi West 6.9 mph - N/A   Mostly Cloudy
5:30 PM 59.0 °F 57.2 °F 94% 30.27 in 6.2 mi West 6.9 mph - N/A   Mostly Cloudy
6:00 PM 59 °F 57 °F 92% 30.27 in 6 mi West 6.9 mph - -   Clear
6:00 PM 59.0 °F 57.2 °F 94% 30.27 in 6.2 mi West 6.9 mph - N/A   Mostly Cloudy
6:30 PM 59.0 °F 57.2 °F 94% 30.27 in 6.2 mi WSW 5.8 mph - N/A   Mostly Cloudy
7:00 PM 59.0 °F 57.2 °F 94% 30.27 in 6.2 mi WSW 6.9 mph - N/A   Mostly Cloudy
7:30 PM 59.0 °F 57.2 °F 94% 30.27 in 6.2 mi WSW 5.8 mph - N/A   Mostly Cloudy
8:00 PM 59.0 °F 57.2 °F 94% 30.27 in 6.2 mi WSW 6.9 mph - N/A   Mostly Cloudy
8:30 PM 59.0 °F 57.2 °F 94% 30.27 in 6.2 mi WSW 8.1 mph - N/A   Mostly Cloudy
9:00 PM 59 °F 57 °F 90% 30.29 in 6 mi SW 8.1 mph - -   Clear
9:00 PM 59.0 °F 57.2 °F 94% 30.27 in 6.2 mi SW 8.1 mph - N/A   Mostly Cloudy
9:30 PM 59.0 °F 57.2 °F 94% 30.30 in 3.1 mi West 10.4 mph - N/A Rain Heavy Rain
10:00 PM 57.2 °F 55.4 °F 94% 30.27 in 3.7 mi West 8.1 mph - N/A   Light Drizzle
10:30 PM 57.2 °F 55.4 °F 94% 30.30 in 4.3 mi West 10.4 mph - N/A   Mostly Cloudy
11:00 PM 57.2 °F 55.4 °F 94% 30.27 in 3.1 mi WSW 6.9 mph - N/A   Light Drizzle
11:30 PM 57.2 °F 55.4 °F 94% 30.30 in - SW 6.9 mph - N/A Rain Heavy Rain